Change the Weather History Date:

Monday, June 23, 2014

  Actual Average Record
Temperature  
Mean Temperature 89 °F -  
Max Temperature 106 °F 104 °F 116 °F (1974)
Min Temperature 72 °F 73 °F 64 °F (1975)
Cooling Degree Days 24    
Growing Degree Days 39 (Base 50)    
Moisture  
Dew Point 28 °F    
Average Humidity 12    
Maximum Humidity 24    
Minimum Humidity 4    
Precipitation  
Precipitation 0.00 in - - ()
Sea Level Pressure  
Sea Level Pressure 29.72 in    
Wind  
Wind Speed 9 mph (South)    
Max Wind Speed 16 mph    
Max Gust Speed -    
Visibility 10 miles    
Events      
Averages and records for this station are not official NWS values.
T = Trace of Precipitation, MM = Missing Value Source: NWS Daily Summary

Daily Weather History Graph

Daily Weather History Graph

Search for Another Location

Airport or City:

Trip Planner

Search our weather history database for the weather conditions in past years. The results will help you decide how hot, cold, wet, or windy it might be!

Date:

Astronomy

Jun. 23, 2014 Rise Set
Actual Time 5:29 AM PDT 7:52 PM PDT
Civil Twilight 5:00 AM PDT 8:21 PM PDT
Nautical Twilight 4:24 AM PDT 8:57 PM PDT
Astronomical Twilight 3:45 AM PDT 9:36 PM PDT
Moon 2:50 AM PDT (6/23) 4:44 PM PDT (6/23)
Length of Visible Light 15h 21m
Length of Day
14h 23m
Waning Crescent, 12% of the Moon is Illuminated
Jun 23
Waning Crescent
Jun 27
New
Jul 5
First Quarter
Jul 12
Full
Jul 18
Last Quarter

Hourly Weather History & Observations

Time (PDT) Temp. Dew Point Humidity Pressure Visibility Wind Dir Wind Speed Gust Speed Precip Events Conditions
12:52 AM 81.0 °F 36.0 °F 20% 29.69 in 10.0 mi SSE 13.8 mph - N/A   Clear
1:52 AM 80.1 °F 34.0 °F 19% 29.70 in 10.0 mi South 10.4 mph - N/A   Clear
2:52 AM 78.1 °F 35.1 °F 21% 29.69 in 10.0 mi SSE 10.4 mph - N/A   Clear
3:52 AM 75.0 °F 34.0 °F 22% 29.70 in 10.0 mi ESE 3.5 mph - N/A   Clear
4:52 AM 72.0 °F 33.1 °F 24% 29.71 in 10.0 mi North 3.5 mph - N/A   Clear
5:52 AM 72.0 °F 32.0 °F 23% 29.73 in 10.0 mi Calm Calm - N/A   Clear
6:52 AM 77.0 °F 32.0 °F 19% 29.74 in 10.0 mi NNW 4.6 mph - N/A   Clear
7:52 AM 84.0 °F 30.9 °F 15% 29.76 in 10.0 mi ENE 3.5 mph - N/A   Clear
8:52 AM 88.0 °F 30.9 °F 13% 29.78 in 10.0 mi South 10.4 mph - N/A   Clear
9:52 AM 93.0 °F 30.0 °F 11% 29.78 in 10.0 mi South 9.2 mph - N/A   Clear
10:52 AM 97.0 °F 32.0 °F 10% 29.78 in 10.0 mi South 9.2 mph - N/A   Clear
11:52 AM 99.0 °F 28.9 °F 8% 29.77 in 10.0 mi South 6.9 mph - N/A   Clear
1:52 PM 104.0 °F 24.1 °F 6% 29.73 in 10.0 mi South 16.1 mph - N/A   Clear
2:52 PM 106.0 °F 23.0 °F 5% 29.71 in 10.0 mi South 15.0 mph - N/A   Clear
3:52 PM 106.0 °F 24.1 °F 6% 29.69 in 10.0 mi South 16.1 mph - N/A   Clear
4:52 PM 106.0 °F 19.0 °F 5% 29.67 in 10.0 mi South 15.0 mph - N/A   Clear
5:52 PM 105.1 °F 21.0 °F 5% 29.67 in 10.0 mi South 15.0 mph - N/A   Clear
6:52 PM 104.0 °F 17.1 °F 4% 29.68 in 10.0 mi SW 6.9 mph - N/A   Clear
7:52 PM 100.0 °F 19.9 °F 6% 29.68 in 10.0 mi SW 5.8 mph - N/A   Clear
8:52 PM 95.0 °F 23.0 °F 8% 29.69 in 10.0 mi SSW 6.9 mph - N/A   Clear
9:52 PM 93.0 °F 21.0 °F 7% 29.71 in 10.0 mi SW 4.6 mph - N/A   Clear
10:52 PM 91.9 °F 21.9 °F 8% 29.72 in 10.0 mi SW 6.9 mph - N/A   Clear
11:52 PM 88.0 °F 34.0 °F 15% 29.72 in 10.0 mi South 15.0 mph - N/A   Clear